RYR7BT EPWR-EGSS

Flight info

Callsign RYR7BT
Flight time 1h 50m
Altitude 28000
Route ULGIL Z348 NAROX/N0444F360 Z348 RENDO DCT KUMER DCT NOGRO M40 RINIS
Aircraft B738/M-SDE2E3FGHIRWXY/LB1

Departure

Time 2026-05-08 18:33
Airport Copernicus Wrocław Airport (EPWR)

Arrival

Time 2026-05-08 20:23
Airport London Stansted Airport (EGSS)
Time Latitude Longitude Altitude Speed Heading
2026-05-08 17:51 51.10789 16.88256 399 ft 0 kts 26°
2026-05-08 18:16 51.10780 16.88250 399 ft 2 kts 26°
2026-05-08 18:16 51.10766 16.88239 399 ft 2 kts 26°
2026-05-08 18:16 51.10755 16.88230 399 ft 0 kts 26°
2026-05-08 18:17 51.10744 16.88223 399 ft 2 kts
2026-05-08 18:17 51.10729 16.88225 399 ft 2 kts 341°
2026-05-08 18:17 51.10716 16.88237 399 ft 2 kts 314°
2026-05-08 18:17 51.10710 16.88249 399 ft 0 kts 298°
2026-05-08 18:18 51.10714 16.88241 399 ft 3 kts 300°
2026-05-08 18:18 51.10717 16.88231 399 ft 0 kts 297°
2026-05-08 18:24 51.10720 16.88221 399 ft 3 kts 297°
2026-05-08 18:25 51.10735 16.88171 398 ft 10 kts 296°
2026-05-08 18:25 51.10766 16.88070 398 ft 9 kts 296°
2026-05-08 18:25 51.10795 16.87976 399 ft 9 kts 296°
2026-05-08 18:25 51.10826 16.87877 399 ft 13 kts 296°
2026-05-08 18:26 51.10867 16.87742 400 ft 12 kts 296°
2026-05-08 18:26 51.10903 16.87625 400 ft 11 kts 296°
2026-05-08 18:26 51.10938 16.87510 400 ft 11 kts 293°
2026-05-08 18:26 51.10930 16.87415 402 ft 7 kts 215°
2026-05-08 18:27 51.10886 16.87378 402 ft 6 kts 208°
2026-05-08 18:27 51.10858 16.87354 402 ft 6 kts 207°
2026-05-08 18:27 51.10801 16.87312 402 ft 6 kts 206°
2026-05-08 18:27 51.10760 16.87281 403 ft 7 kts 206°
2026-05-08 18:28 51.10707 16.87245 404 ft 8 kts 188°
2026-05-08 18:28 51.10657 16.87314 405 ft 13 kts 117°
2026-05-08 18:28 51.10606 16.87483 403 ft 21 kts 116°
2026-05-08 18:28 51.10538 16.87705 404 ft 22 kts 115°
2026-05-08 18:29 51.10468 16.87930 402 ft 24 kts 116°
2026-05-08 18:29 51.10387 16.88193 400 ft 30 kts 116°
2026-05-08 18:29 51.10289 16.88514 398 ft 32 kts 116°
2026-05-08 18:29 51.10191 16.88838 396 ft 32 kts 115°
2026-05-08 18:30 51.10093 16.89158 395 ft 31 kts 117°
2026-05-08 18:30 51.10001 16.89456 399 ft 28 kts 116°
2026-05-08 18:30 51.09936 16.89665 399 ft 16 kts 116°
2026-05-08 18:30 51.09921 16.89743 399 ft 3 kts 159°
2026-05-08 18:31 51.09913 16.89720 399 ft 3 kts 302°
2026-05-08 18:31 51.09925 16.89698 399 ft 1 kts 296°
2026-05-08 18:31 51.09925 16.89697 399 ft 0 kts 296°
2026-05-08 18:32 51.09935 16.89667 399 ft 13 kts 296°
2026-05-08 18:32 51.10095 16.89152 395 ft 87 kts 296°
2026-05-08 18:32 51.10452 16.87985 402 ft 145 kts 296°
2026-05-08 18:32 51.10939 16.86407 715 ft 167 kts 297°
2026-05-08 18:33 51.11438 16.84755 1456 ft 166 kts 298°
2026-05-08 18:33 51.11957 16.83119 2082 ft 170 kts 299°
2026-05-08 18:33 51.12503 16.81406 2497 ft 183 kts 298°
2026-05-08 18:33 51.12807 16.79371 2901 ft 200 kts 266°
2026-05-08 18:34 51.12254 16.77286 3265 ft 219 kts 230°
2026-05-08 18:34 51.11004 16.75784 3726 ft 233 kts 210°
2026-05-08 18:34 51.09594 16.74398 4216 ft 243 kts 224°
2026-05-08 18:34 51.08695 16.72157 4845 ft 244 kts 251°
2026-05-08 18:35 51.08420 16.69537 5532 ft 243 kts 272°
2026-05-08 18:35 51.08608 16.66900 6206 ft 245 kts 279°
2026-05-08 18:35 51.08885 16.64205 6884 ft 248 kts 279°
2026-05-08 18:35 51.09133 16.61526 7597 ft 250 kts 278°
2026-05-08 18:36 51.09354 16.58801 8246 ft 254 kts 278°
2026-05-08 18:36 51.09569 16.55981 8846 ft 261 kts 278°
2026-05-08 18:36 51.09791 16.53019 9311 ft 275 kts 278°
2026-05-08 18:36 51.10017 16.49979 9918 ft 281 kts 278°
2026-05-08 18:37 51.10245 16.46917 10556 ft 285 kts 278°
2026-05-08 18:37 51.10482 16.43714 11134 ft 293 kts 278°
2026-05-08 18:37 51.10719 16.40511 11846 ft 296 kts 278°
2026-05-08 18:37 51.10957 16.37281 12568 ft 298 kts 277°
2026-05-08 18:38 51.11200 16.33987 13345 ft 299 kts 277°
2026-05-08 18:38 51.11443 16.30707 14064 ft 301 kts 276°
2026-05-08 18:38 51.11685 16.27416 14770 ft 304 kts 277°
2026-05-08 18:38 51.11931 16.24071 15474 ft 307 kts 276°
2026-05-08 18:39 51.12178 16.20702 16177 ft 309 kts 276°
2026-05-08 18:39 51.12425 16.17314 16846 ft 313 kts 276°
2026-05-08 18:39 51.12674 16.13891 17505 ft 316 kts 276°
2026-05-08 18:39 51.12925 16.10428 18178 ft 318 kts 276°
2026-05-08 18:40 51.13177 16.06916 18795 ft 322 kts 276°
2026-05-08 18:40 51.13430 16.03398 19424 ft 324 kts 276°
2026-05-08 18:40 51.13685 15.99841 20033 ft 327 kts 276°
2026-05-08 18:40 51.13941 15.96234 20627 ft 330 kts 276°
2026-05-08 18:41 51.14198 15.92606 21230 ft 332 kts 276°
2026-05-08 18:41 51.14456 15.88944 21806 ft 335 kts 276°
2026-05-08 18:41 51.14716 15.85250 22337 ft 338 kts 276°
2026-05-08 18:41 51.14975 15.81540 22905 ft 340 kts 276°
2026-05-08 18:42 51.15235 15.77789 23407 ft 343 kts 276°
2026-05-08 18:42 51.15495 15.74028 23941 ft 345 kts 276°
2026-05-08 18:42 51.15760 15.70196 24426 ft 348 kts 276°
2026-05-08 18:42 51.16019 15.66408 24920 ft 350 kts 276°
2026-05-08 18:43 51.16283 15.62534 25391 ft 353 kts 276°
2026-05-08 18:43 51.16545 15.58677 25876 ft 354 kts 276°
2026-05-08 18:43 51.16810 15.54764 26317 ft 357 kts 276°
2026-05-08 18:43 51.17072 15.50855 26751 ft 359 kts 276°
2026-05-08 18:44 51.17339 15.46889 27201 ft 361 kts 276°
2026-05-08 18:44 51.17608 15.42838 27603 ft 364 kts 276°
2026-05-08 18:44 51.17871 15.38848 28014 ft 366 kts 276°
2026-05-08 18:44 51.18140 15.34764 28418 ft 368 kts 275°
2026-05-08 18:45 51.18407 15.30681 28820 ft 371 kts 275°
2026-05-08 18:45 51.18671 15.26629 29193 ft 373 kts 275°
2026-05-08 18:45 51.18938 15.22500 29590 ft 375 kts 275°
2026-05-08 18:45 51.19205 15.18339 29919 ft 378 kts 275°
2026-05-08 18:46 51.19470 15.14202 30299 ft 379 kts 275°
2026-05-08 18:46 51.19737 15.10008 30649 ft 382 kts 275°
2026-05-08 18:46 51.20003 15.05793 30990 ft 383 kts 275°
2026-05-08 18:46 51.20269 15.01579 31291 ft 385 kts 275°
2026-05-08 18:47 51.20545 14.97348 31609 ft 387 kts 276°
2026-05-08 18:47 51.20841 14.93102 31870 ft 389 kts 276°
2026-05-08 18:47 51.21148 14.88811 32182 ft 391 kts 276°
2026-05-08 18:47 51.21455 14.84524 32460 ft 393 kts 276°
2026-05-08 18:48 51.21763 14.80195 32739 ft 394 kts 276°
2026-05-08 18:48 51.22069 14.75854 32982 ft 397 kts 276°
2026-05-08 18:48 51.22374 14.71494 33287 ft 397 kts 276°
2026-05-08 18:48 51.22678 14.67116 33506 ft 400 kts 276°
2026-05-08 18:49 51.22981 14.62700 33763 ft 402 kts 276°
2026-05-08 18:49 51.23283 14.58281 34026 ft 403 kts 276°
2026-05-08 18:49 51.23582 14.53851 34208 ft 407 kts 276°
2026-05-08 18:49 51.23886 14.49332 34451 ft 408 kts 276°
2026-05-08 18:50 51.24187 14.44837 34691 ft 409 kts 276°
2026-05-08 18:50 51.24483 14.40368 34930 ft 407 kts 276°
2026-05-08 18:50 51.24778 14.35914 35091 ft 407 kts 276°
2026-05-08 18:50 51.25072 14.31427 35271 ft 407 kts 275°
2026-05-08 18:51 51.25364 14.26950 35451 ft 407 kts 275°
2026-05-08 18:51 51.25656 14.22451 35617 ft 407 kts 275°
2026-05-08 18:51 51.25945 14.17971 35789 ft 408 kts 275°
2026-05-08 18:51 51.26229 14.13546 35975 ft 408 kts 275°
2026-05-08 18:52 51.26516 14.09020 36147 ft 409 kts 275°
2026-05-08 18:52 51.26801 14.04516 36159 ft 411 kts 275°
2026-05-08 18:52 51.27364 13.95515 36163 ft 409 kts 275°
2026-05-08 18:53 51.27936 13.86493 36165 ft 409 kts 276°
2026-05-08 18:53 51.28715 13.77548 36166 ft 409 kts 278°
2026-05-08 18:54 51.29591 13.68605 36166 ft 409 kts 278°
2026-05-08 18:54 51.30458 13.59589 36165 ft 409 kts 278°
2026-05-08 18:55 51.31705 13.46135 36163 ft 409 kts 277°
2026-05-08 18:56 51.32517 13.37146 36159 ft 409 kts 278°
2026-05-08 18:56 51.33319 13.28167 36159 ft 410 kts 277°
2026-05-08 18:57 51.34115 13.19169 36156 ft 409 kts 277°
2026-05-08 18:57 51.34902 13.10189 36157 ft 409 kts 277°
2026-05-08 18:58 51.35680 13.01241 36154 ft 409 kts 277°
2026-05-08 18:58 51.36451 12.92271 36154 ft 409 kts 277°
2026-05-08 18:59 51.37219 12.83265 36156 ft 409 kts 277°
2026-05-08 18:59 51.37978 12.74272 36159 ft 409 kts 277°
2026-05-08 19:00 51.38730 12.65274 36157 ft 410 kts 277°
2026-05-08 19:00 51.39478 12.56242 36156 ft 410 kts 277°
2026-05-08 19:01 51.40217 12.47247 36160 ft 410 kts 277°
2026-05-08 19:01 51.40951 12.38221 36162 ft 410 kts 277°
2026-05-08 19:02 51.41678 12.29187 36163 ft 409 kts 276°
2026-05-08 19:02 51.42396 12.20164 36166 ft 409 kts 276°
2026-05-08 19:03 51.43102 12.11220 36165 ft 409 kts 276°
2026-05-08 19:03 51.43812 12.02135 36163 ft 409 kts 276°
2026-05-08 19:04 51.44508 11.93124 36161 ft 410 kts 276°
2026-05-08 19:04 51.45197 11.84125 36156 ft 409 kts 276°
2026-05-08 19:05 51.45882 11.75083 36156 ft 409 kts 276°
2026-05-08 19:05 51.46560 11.66049 36151 ft 410 kts 276°
2026-05-08 19:06 51.47229 11.57016 36152 ft 409 kts 276°
2026-05-08 19:06 51.47890 11.48015 36150 ft 409 kts 276°
2026-05-08 19:07 51.48549 11.38938 36149 ft 410 kts 276°
2026-05-08 19:07 51.49195 11.29933 36150 ft 410 kts 275°
2026-05-08 19:08 51.49836 11.20900 36150 ft 410 kts 276°
2026-05-08 19:08 51.50465 11.11950 36152 ft 410 kts 276°
2026-05-08 19:09 51.51091 11.02925 36150 ft 409 kts 276°
2026-05-08 19:09 51.51707 10.93957 36148 ft 410 kts 276°
2026-05-08 19:10 51.52322 10.84899 36148 ft 410 kts 276°
2026-05-08 19:10 51.52624 10.80408 36430 ft 412 kts 276°
2026-05-08 19:10 51.52929 10.75849 36227 ft 411 kts 276°
2026-05-08 19:11 51.53706 10.64107 36145 ft 405 kts 276°
2026-05-08 19:12 51.54413 10.55109 36140 ft 409 kts 278°
2026-05-08 19:12 51.55234 10.46130 36136 ft 407 kts 278°
2026-05-08 19:13 51.56057 10.37133 36137 ft 407 kts 278°
2026-05-08 19:13 51.56856 10.28153 36140 ft 408 kts 277°
2026-05-08 19:14 51.57640 10.19146 36143 ft 408 kts 277°
2026-05-08 19:14 51.58414 10.10128 36144 ft 409 kts 277°
2026-05-08 19:15 51.59181 10.01076 36143 ft 409 kts 277°
2026-05-08 19:15 51.59938 9.92057 36141 ft 408 kts 277°
2026-05-08 19:16 51.60684 9.83087 36136 ft 409 kts 277°
2026-05-08 19:16 51.61427 9.74059 36134 ft 409 kts 277°
2026-05-08 19:17 51.62166 9.64999 36137 ft 409 kts 277°
2026-05-08 19:17 51.62896 9.55949 36136 ft 409 kts 277°
2026-05-08 19:18 51.63621 9.46883 36133 ft 410 kts 277°
2026-05-08 19:18 51.64338 9.37814 36133 ft 410 kts 277°
2026-05-08 19:19 51.65048 9.28756 36132 ft 411 kts 276°
2026-05-08 19:19 51.65752 9.19673 36134 ft 410 kts 276°
2026-05-08 19:20 51.66448 9.10614 36133 ft 410 kts 277°
2026-05-08 19:20 51.67138 9.01519 36132 ft 410 kts 277°
2026-05-08 19:21 51.67824 8.92394 36140 ft 411 kts 277°
2026-05-08 19:21 51.68500 8.83303 36141 ft 410 kts 277°
2026-05-08 19:22 51.69170 8.74204 36132 ft 411 kts 277°
2026-05-08 19:22 51.69833 8.65109 36136 ft 410 kts 277°
2026-05-08 19:23 51.70485 8.56038 36136 ft 411 kts 277°
2026-05-08 19:23 51.71135 8.46911 36141 ft 410 kts 277°
2026-05-08 19:24 51.71778 8.37782 36131 ft 410 kts 277°
2026-05-08 19:24 51.72414 8.28637 36133 ft 411 kts 276°
2026-05-08 19:25 51.73039 8.19551 36122 ft 411 kts 276°
2026-05-08 19:25 51.73663 8.10375 36134 ft 411 kts 276°
2026-05-08 19:26 51.74276 8.01259 36130 ft 411 kts 276°
2026-05-08 19:26 51.74883 7.92125 36129 ft 411 kts 276°
2026-05-08 19:27 51.75482 7.83001 36124 ft 411 kts 276°
2026-05-08 19:27 51.76076 7.73828 36125 ft 411 kts 277°
2026-05-08 19:28 51.76660 7.64700 36137 ft 412 kts 277°
2026-05-08 19:28 51.77240 7.55544 36123 ft 411 kts 277°
2026-05-08 19:29 51.77811 7.46411 36123 ft 413 kts 277°
2026-05-08 19:29 51.78375 7.37270 36121 ft 412 kts 277°
2026-05-08 19:30 51.78927 7.28196 36122 ft 413 kts 276°
2026-05-08 19:30 51.79479 7.19003 36121 ft 412 kts 276°
2026-05-08 19:31 51.80022 7.09838 36116 ft 412 kts 276°
2026-05-08 19:31 51.80559 7.00680 36123 ft 412 kts 276°
2026-05-08 19:32 51.81087 6.91535 36120 ft 412 kts 277°
2026-05-08 19:32 51.81611 6.82331 36124 ft 413 kts 277°
2026-05-08 19:33 51.82127 6.73132 36126 ft 412 kts 277°
2026-05-08 19:33 51.82636 6.63942 36123 ft 413 kts 277°
2026-05-08 19:34 51.83138 6.54737 36126 ft 412 kts 277°
2026-05-08 19:34 51.83631 6.45557 36126 ft 412 kts 277°
2026-05-08 19:35 51.84116 6.36407 36129 ft 411 kts 277°
2026-05-08 19:35 51.84594 6.27261 36126 ft 410 kts 277°
2026-05-08 19:36 51.85064 6.18116 36125 ft 410 kts 277°
2026-05-08 19:36 51.85296 6.13538 35835 ft 409 kts 277°
2026-05-08 19:36 51.85525 6.08988 36030 ft 407 kts 277°
2026-05-08 19:37 51.85985 5.99808 36131 ft 414 kts 277°
2026-05-08 19:37 51.86438 5.90599 36126 ft 413 kts 277°
2026-05-08 19:38 51.86881 5.81391 36127 ft 412 kts 277°
2026-05-08 19:38 51.87318 5.72166 36134 ft 412 kts 277°
2026-05-08 19:39 51.87749 5.62943 36134 ft 412 kts 277°
2026-05-08 19:39 51.88171 5.53747 36145 ft 411 kts 277°
2026-05-08 19:40 51.88585 5.44556 36137 ft 411 kts 277°
2026-05-08 19:40 51.88992 5.35381 36129 ft 411 kts 277°
2026-05-08 19:41 51.89393 5.26176 36135 ft 411 kts 277°
2026-05-08 19:41 51.89784 5.17019 36124 ft 410 kts 276°
2026-05-08 19:42 51.90169 5.07832 36146 ft 409 kts 277°
2026-05-08 19:42 51.90543 4.98740 36136 ft 408 kts 277°
2026-05-08 19:43 51.90915 4.89575 36137 ft 409 kts 277°
2026-05-08 19:43 51.91276 4.80469 36135 ft 409 kts 277°
2026-05-08 19:44 51.91633 4.71277 36140 ft 409 kts 277°
2026-05-08 19:44 51.91978 4.62180 36127 ft 408 kts 277°
2026-05-08 19:45 51.92320 4.52989 36139 ft 408 kts 277°
2026-05-08 19:45 51.92653 4.43877 36142 ft 407 kts 277°
2026-05-08 19:46 51.92978 4.34843 36131 ft 406 kts 276°
2026-05-08 19:46 51.93456 4.21117 35775 ft 407 kts 277°
2026-05-08 19:47 51.93609 4.16584 35593 ft 406 kts 277°
2026-05-08 19:47 51.93762 4.12018 35414 ft 406 kts 277°
2026-05-08 19:47 51.93915 4.07457 35238 ft 406 kts 277°
2026-05-08 19:47 51.94065 4.02923 35049 ft 407 kts 277°
2026-05-08 19:48 51.94214 3.98335 34864 ft 405 kts 278°
2026-05-08 19:48 51.94358 3.93820 34644 ft 406 kts 278°
2026-05-08 19:48 51.94501 3.89286 34393 ft 406 kts 277°
2026-05-08 19:48 51.94643 3.84742 34170 ft 407 kts 278°
2026-05-08 19:49 51.94921 3.75636 34132 ft 407 kts 278°
2026-05-08 19:49 51.95195 3.66531 34132 ft 409 kts 277°
2026-05-08 19:50 51.95459 3.57415 34127 ft 406 kts 277°
2026-05-08 19:50 51.95716 3.48326 34122 ft 407 kts 277°
2026-05-08 19:51 51.95968 3.39209 34127 ft 407 kts 277°
2026-05-08 19:51 51.96212 3.30093 34134 ft 405 kts 276°
2026-05-08 19:52 51.96424 3.21027 34129 ft 406 kts 274°
2026-05-08 19:52 51.96093 3.11904 33902 ft 412 kts 269°
2026-05-08 19:53 51.95786 3.07253 33351 ft 414 kts 268°
2026-05-08 19:53 51.95456 3.02629 32760 ft 412 kts 268°
2026-05-08 19:53 51.95129 2.98053 32149 ft 410 kts 268°
2026-05-08 19:53 51.94814 2.93540 31542 ft 409 kts 268°
2026-05-08 19:54 51.94503 2.88946 30929 ft 407 kts 268°
2026-05-08 19:54 51.94206 2.84445 30321 ft 405 kts 268°
2026-05-08 19:54 51.93913 2.79928 29706 ft 403 kts 267°
2026-05-08 19:54 51.93626 2.75455 29094 ft 402 kts 267°
2026-05-08 19:55 51.93339 2.70979 28480 ft 400 kts 267°
2026-05-08 19:55 51.93058 2.66538 27869 ft 401 kts 267°
2026-05-08 19:55 51.92771 2.62055 27230 ft 404 kts 266°
2026-05-08 19:55 51.92478 2.57507 26507 ft 408 kts 266°
2026-05-08 19:56 51.92182 2.52964 25790 ft 409 kts 266°
2026-05-08 19:56 51.91884 2.48411 25071 ft 409 kts 265°
2026-05-08 19:56 51.91582 2.43837 24360 ft 408 kts 265°
2026-05-08 19:56 51.91283 2.39318 23663 ft 407 kts 265°
2026-05-08 19:57 51.90987 2.34875 23041 ft 406 kts 264°
2026-05-08 19:57 51.90707 2.30461 22594 ft 399 kts 266°
2026-05-08 19:57 51.90530 2.26032 22142 ft 392 kts 268°
2026-05-08 19:57 51.90431 2.21678 21698 ft 387 kts 269°
2026-05-08 19:58 51.90496 2.17386 21250 ft 380 kts 277°
2026-05-08 19:58 51.91003 2.13274 20861 ft 373 kts 286°
2026-05-08 19:58 51.91802 2.09350 20514 ft 365 kts 290°
2026-05-08 19:58 51.92715 2.05527 20166 ft 358 kts 291°
2026-05-08 19:59 51.93627 2.01842 19824 ft 353 kts 291°
2026-05-08 19:59 51.94523 1.98197 19487 ft 351 kts 291°
2026-05-08 19:59 51.95410 1.94514 19141 ft 350 kts 290°
2026-05-08 19:59 51.96275 1.90856 19025 ft 346 kts 290°
2026-05-08 20:00 51.97127 1.87192 19027 ft 350 kts 290°
2026-05-08 20:00 51.97977 1.83484 18929 ft 352 kts 289°
2026-05-08 20:00 51.98817 1.79783 18811 ft 350 kts 289°
2026-05-08 20:00 51.99644 1.76114 18680 ft 337 kts 289°
2026-05-08 20:01 52.00426 1.72634 18551 ft 325 kts 289°
2026-05-08 20:01 52.01195 1.69206 18436 ft 320 kts 289°
2026-05-08 20:01 52.01948 1.65836 18285 ft 323 kts 289°
2026-05-08 20:01 52.02718 1.62384 17977 ft 323 kts 289°
2026-05-08 20:02 52.03469 1.59021 17683 ft 319 kts 289°
2026-05-08 20:02 52.04227 1.55612 17381 ft 317 kts 289°
2026-05-08 20:02 52.04794 1.52223 17082 ft 316 kts 275°
2026-05-08 20:02 52.04824 1.48678 16796 ft 314 kts 267°
2026-05-08 20:03 52.04704 1.45132 16483 ft 314 kts 266°
2026-05-08 20:03 52.04565 1.41578 16089 ft 313 kts 266°
2026-05-08 20:03 52.04433 1.38116 15777 ft 309 kts 266°
2026-05-08 20:03 52.04307 1.34635 15400 ft 309 kts 265°
2026-05-08 20:04 52.04188 1.31179 15037 ft 308 kts 265°
2026-05-08 20:04 52.04071 1.27700 14661 ft 305 kts 265°
2026-05-08 20:04 52.03957 1.24301 14284 ft 304 kts 265°
2026-05-08 20:04 52.03842 1.20901 13907 ft 302 kts 265°
2026-05-08 20:05 52.03727 1.17531 13524 ft 301 kts 265°
2026-05-08 20:05 52.03611 1.14155 13122 ft 298 kts 266°
2026-05-08 20:05 52.03494 1.10816 12743 ft 296 kts 266°
2026-05-08 20:05 52.03377 1.07483 12343 ft 294 kts 266°
2026-05-08 20:06 52.03260 1.04176 11975 ft 292 kts 266°
2026-05-08 20:06 52.03144 1.00923 11702 ft 291 kts 266°
2026-05-08 20:06 52.03027 0.97665 11406 ft 290 kts 266°
2026-05-08 20:06 52.02909 0.94390 11111 ft 289 kts 267°
2026-05-08 20:07 52.02791 0.91141 10802 ft 288 kts 267°
2026-05-08 20:07 52.02674 0.87928 10474 ft 287 kts 267°
2026-05-08 20:07 52.02554 0.84694 10234 ft 286 kts 267°
2026-05-08 20:07 52.02434 0.81500 9907 ft 285 kts 267°
2026-05-08 20:08 52.02314 0.78291 9612 ft 284 kts 267°
2026-05-08 20:08 52.02195 0.75145 9337 ft 283 kts 267°
2026-05-08 20:08 52.02073 0.71939 9031 ft 282 kts 267°
2026-05-08 20:08 52.02198 0.68798 8732 ft 280 kts 285°
2026-05-08 20:09 52.02870 0.65861 8550 ft 279 kts 295°
2026-05-08 20:09 52.03673 0.63062 8338 ft 273 kts 296°
2026-05-08 20:09 52.04491 0.60295 8138 ft 266 kts 296°
2026-05-08 20:09 52.05281 0.57622 7940 ft 266 kts 296°
2026-05-08 20:10 52.06084 0.54904 7738 ft 268 kts 297°
2026-05-08 20:10 52.06886 0.52184 7506 ft 266 kts 296°
2026-05-08 20:10 52.07680 0.49490 7328 ft 266 kts 297°
2026-05-08 20:10 52.08475 0.46789 7128 ft 265 kts 296°
2026-05-08 20:11 52.09092 0.43984 6885 ft 265 kts 279°
2026-05-08 20:11 52.08936 0.41033 6665 ft 265 kts 251°
2026-05-08 20:11 52.07986 0.38481 6494 ft 263 kts 230°
2026-05-08 20:11 52.06758 0.36297 6377 ft 263 kts 227°
2026-05-08 20:12 52.05490 0.34147 6210 ft 263 kts 226°
2026-05-08 20:12 52.04239 0.32028 6070 ft 262 kts 226°
2026-05-08 20:12 52.02978 0.29884 5978 ft 261 kts 226°
2026-05-08 20:12 52.01733 0.27760 5981 ft 263 kts 226°
2026-05-08 20:13 52.00483 0.25625 5966 ft 253 kts 226°
2026-05-08 20:13 51.99311 0.23620 5991 ft 241 kts 226°
2026-05-08 20:13 51.98162 0.21655 5988 ft 241 kts 226°
2026-05-08 20:13 51.97002 0.19672 5973 ft 241 kts 226°
2026-05-08 20:14 51.95850 0.17702 5970 ft 241 kts 226°
2026-05-08 20:14 51.94703 0.15743 5974 ft 241 kts 226°
2026-05-08 20:14 51.93550 0.13781 5983 ft 241 kts 226°
2026-05-08 20:14 51.92404 0.11833 5977 ft 241 kts 226°
2026-05-08 20:15 51.91244 0.09865 5921 ft 241 kts 226°
2026-05-08 20:15 51.90082 0.07893 5804 ft 240 kts 226°
2026-05-08 20:15 51.88931 0.05935 5610 ft 239 kts 226°
2026-05-08 20:15 51.87823 0.04040 5371 ft 231 kts 226°
2026-05-08 20:16 51.86732 0.02168 5081 ft 226 kts 226°
2026-05-08 20:16 51.85541 0.00577 4809 ft 219 kts 207°
2026-05-08 20:16 51.84178 -0.00414 4580 ft 214 kts 201°
2026-05-08 20:16 51.82813 -0.01309 4304 ft 213 kts 201°
2026-05-08 20:17 51.81443 -0.02210 3980 ft 212 kts 201°
2026-05-08 20:17 51.80059 -0.03001 3634 ft 209 kts 188°
2026-05-08 20:17 51.78672 -0.02760 3392 ft 201 kts 156°
2026-05-08 20:17 51.77438 -0.01778 3156 ft 194 kts 150°
2026-05-08 20:18 51.76266 -0.00764 2903 ft 190 kts 146°
2026-05-08 20:18 51.75411 0.00774 2641 ft 182 kts 110°
2026-05-08 20:18 51.75340 0.02739 2461 ft 176 kts 75°
2026-05-08 20:18 51.75927 0.04456 2474 ft 181 kts 53°
2026-05-08 20:19 51.76781 0.05962 2466 ft 178 kts 47°
2026-05-08 20:19 51.77636 0.07281 2474 ft 165 kts 45°
2026-05-08 20:19 51.78478 0.08541 2473 ft 167 kts 45°
2026-05-08 20:19 51.79337 0.09821 2475 ft 167 kts 45°
2026-05-08 20:20 51.80195 0.11097 2386 ft 169 kts 45°
2026-05-08 20:20 51.81048 0.12366 2148 ft 167 kts 45°
2026-05-08 20:20 51.81876 0.13596 1937 ft 154 kts 46°
2026-05-08 20:20 51.82653 0.14753 1712 ft 149 kts 46°
2026-05-08 20:21 51.83391 0.15856 1524 ft 144 kts 46°
2026-05-08 20:21 51.84139 0.16972 1329 ft 149 kts 46°
2026-05-08 20:21 51.84908 0.18118 1121 ft 152 kts 46°
2026-05-08 20:21 51.85669 0.19254 916 ft 148 kts 46°
2026-05-08 20:22 51.86413 0.20356 722 ft 143 kts 45°
2026-05-08 20:22 51.87142 0.21448 518 ft 141 kts 45°
2026-05-08 20:22 51.87867 0.22533 352 ft 139 kts 45°
2026-05-08 20:22 51.88306 0.23195 343 ft 113 kts 42°
2026-05-08 20:23 51.88836 0.23987 336 ft 53 kts 43°
2026-05-08 20:23 51.89041 0.24330 337 ft 35 kts 57°
2026-05-08 20:23 51.89119 0.24608 339 ft 22 kts 69°
2026-05-08 20:23 51.89162 0.24782 340 ft 12 kts 66°
2026-05-08 20:24 51.89162 0.24871 340 ft 5 kts 123°
2026-05-08 20:24 51.89151 0.24932 339 ft 5 kts 61°
2026-05-08 20:24 51.89173 0.24973 340 ft 4 kts 46°
2026-05-08 20:24 51.89203 0.25024 340 ft 7 kts 47°
2026-05-08 20:25 51.89234 0.25097 341 ft 8 kts 58°
2026-05-08 20:25 51.89239 0.25174 341 ft 7 kts 125°
2026-05-08 20:25 51.89204 0.25238 341 ft 7 kts 122°
2026-05-08 20:25 51.89176 0.25323 340 ft 8 kts 122°
2026-05-08 20:26 51.89143 0.25388 339 ft 4 kts 131°
2026-05-08 20:26 51.89136 0.25408 339 ft 3 kts 96°
2026-05-08 20:26 51.89145 0.25460 339 ft 4 kts 53°
2026-05-08 20:26 51.89159 0.25491 340 ft 1 kts 52°
2026-05-08 20:27 51.89160 0.25494 340 ft 0 kts 52°